Theta_e
349 356 364 366 365 366 367 367 367 367 367 367 367 369 368 369 369 369 369 369 369 369 368 366 368 366 365 365 363 363 362 362 363 361 359 357 357 356 357 354 356 352 357
352 357 367 367 366 366 366 367 367 367 368 369 369 368 369 370 371 369 369 369 368 368 367 366 366 366 364 364 363 361 362 360 360 360 359 357 358 359 357 356 357 354 355
353 356 361 368 367 367 367 366 366 367 369 369 369 368 368 368 369 369 369 369 368 367 365 364 364 364 363 363 363 362 359 357 358 357 356 355 355 359 358 357 358 357 355
353 356 358 368 368 368 367 367 368 367 368 369 368 368 368 368 369 369 368 368 366 367 364 364 363 361 360 359 359 359 359 356 356 353 355 353 353 359 356 359 357 355 356
359 360 363 369 368 367 368 369 370 369 369 369 369 368 367 367 365 364 365 365 365 366 364 363 362 360 359 358 358 358 359 359 358 356 354 353 353 357 356 354 354 351 353
359 360 366 369 368 369 369 369 370 369 369 370 368 368 367 366 366 364 364 364 364 363 363 362 360 359 359 358 358 358 359 359 357 354 353 357 356 359 357 355 356 352 353
357 360 364 372 372 370 371 370 370 370 369 368 368 366 367 366 365 364 364 363 362 361 360 360 359 358 358 360 360 360 358 358 356 354 353 352 357 361 359 355 356 354 355
355 359 361 369 370 368 370 369 370 369 369 369 368 367 368 365 364 362 362 361 360 359 358 359 359 358 358 359 359 360 358 358 354 356 356 356 359 361 359 354 354 355 355
359 360 362 363 366 369 371 369 369 369 368 367 367 366 365 364 363 362 362 360 358 358 358 360 361 358 360 361 361 362 360 359 356 356 356 353 361 361 358 357 352 351 351
357 361 364 364 364 365 366 370 369 369 368 367 365 363 364 364 364 360 360 361 361 359 359 361 361 361 361 363 363 363 361 360 356 354 353 355 361 361 358 357 355 353 349
355 358 357 361 365 369 366 364 368 368 368 366 364 364 364 359 358 343 341 351 362 361 360 360 361 363 362 362 364 364 361 354 355 359 356 356 363 360 359 357 356 354 355
351 354 357 358 362 364 360 365 366 363 362 363 362 365 362 362 360 353 342 350 362 361 361 362 362 361 358 354 358 361 357 353 356 355 355 355 361 361 359 360 358 356 354
353 352 355 364 367 365 359 363 365 363 362 362 367 367 370 365 353 360 359 358 362 364 360 361 360 357 357 355 353 352 355 353 350 355 356 360 362 361 361 359 359 358 357
350 354 358 358 363 366 360 361 362 361 363 354 364 369 367 363 366 366 361 363 364 360 362 361 359 362 357 358 355 352 351 349 350 354 358 361 361 361 360 360 360 358 356
349 351 358 364 364 372 365 368 357 359 356 361 363 366 365 366 364 364 363 362 361 362 361 361 360 358 357 355 356 355 350 350 350 353 356 362 360 362 362 362 360 361 359
350 352 356 362 367 369 372 372 372 366 361 368 365 362 367 363 364 359 361 358 365 359 364 359 360 357 356 356 354 354 353 353 353 355 353 357 360 361 362 362 363 362 361
349 352 356 357 364 367 368 372 371 366 360 360 364 369 367 367 365 362 361 357 357 362 363 360 358 356 354 352 354 352 354 354 353 354 355 357 356 361 362 363 363 365 365
351 357 357 354 360 366 367 369 366 364 363 366 364 361 364 367 365 363 357 355 357 359 356 353 355 353 352 352 351 352 353 353 352 354 354 354 355 356 360 363 362 363 366
357 358 359 361 361 366 366 368 366 368 368 365 365 365 364 368 364 363 361 359 360 354 353 352 351 354 348 347 348 348 351 352 349 348 351 352 352 353 356 359 359 361 363
358 360 361 362 366 365 369 370 367 367 362 363 365 359 366 366 363 367 362 358 358 357 354 353 351 352 351 349 346 345 347 350 349 346 346 349 352 351 351 356 357 356 361
355 362 360 366 370 370 366 365 367 364 368 362 364 365 365 368 363 364 362 359 360 354 354 355 352 348 347 352 346 343 346 347 347 349 348 346 346 349 350 352 357 355 356
357 361 364 367 370 370 370 371 366 365 364 363 361 365 364 361 361 361 361 357 355 352 352 353 352 347 346 348 340 338 333 338 344 346 348 345 346 347 347 349 351 355 355
353 359 363 368 367 370 370 369 367 364 363 359 360 352 357 354 354 358 358 356 356 355 347 350 350 345 342 347 345 338 330 328 335 343 346 347 346 345 346 348 350 350 355
353 359 363 368 370 369 369 366 361 353 345 356 356 352 352 354 354 353 355 355 354 352 349 348 348 347 348 340 344 346 341 338 332 329 341 345 348 345 346 347 347 350 351
353 354 362 368 368 365 362 358 353 352 346 349 349 352 355 352 353 351 355 354 352 349 349 348 348 347 346 344 341 341 342 338 340 334 329 334 341 348 347 346 344 346 350
350 353 360 363 363 362 358 356 353 352 350 347 348 347 344 348 348 354 351 351 352 348 348 346 348 346 345 344 342 339 338 335 333 332 330 332 335 339 346 346 344 345 345
Wind_Speed
12 12 10 13 15 16 17 17 17 18 18 18 18 17 16 17 15 15 14 13 12 10 10 9 10 10 10 10 9 9 10 9 9 10 10 10 11 8 7 5 6 12 10
15 13 9 13 16 15 16 17 17 17 17 18 16 16 16 15 14 13 13 12 11 11 11 10 10 10 9 9 7 6 6 5 8 7 8 8 10 8 6 8 12 10 9
15 13 13 12 14 15 15 15 17 17 16 15 15 15 16 14 12 12 11 11 11 11 10 9 9 8 6 5 4 3 1 2 4 4 4 6 7 7 10 11 12 11 10
14 14 13 12 13 14 14 14 15 16 15 14 13 14 14 13 12 11 11 11 10 9 9 8 7 6 4 3 2 3 4 4 5 2 2 2 7 9 10 12 11 10 11
14 13 10 12 13 14 13 13 14 15 14 13 13 13 12 13 12 12 11 10 8 8 8 8 6 4 4 3 3 3 5 7 9 8 5 5 4 10 10 10 10 9 9
12 14 12 12 13 12 13 13 13 13 13 13 12 11 11 12 12 10 9 9 7 7 6 6 5 4 4 4 4 4 6 6 10 8 5 4 6 12 12 8 10 12 11
15 13 13 12 13 14 13 13 13 13 13 12 11 10 9 10 10 8 7 6 5 5 4 4 3 3 4 5 5 6 5 4 6 7 3 5 7 10 12 12 11 11 10
13 16 13 12 13 13 12 12 12 12 11 10 9 8 8 8 7 6 5 4 4 3 3 3 4 3 3 4 5 6 4 5 7 2 4 4 11 10 13 12 11 10 8
14 15 11 12 12 13 12 12 11 11 10 9 8 7 6 6 7 6 4 3 1 1 2 4 5 3 4 5 7 7 6 5 5 4 2 7 13 11 12 12 11 9 8
15 11 12 11 10 10 10 12 11 10 9 8 8 7 7 8 8 6 6 4 4 4 2 4 4 4 6 7 8 9 9 9 4 1 3 5 12 10 11 11 11 10 9
12 9 10 9 9 6 10 9 9 10 9 9 7 8 8 7 6 8 6 4 11 6 6 6 6 7 7 8 11 11 10 5 3 2 3 8 11 12 11 11 11 11 10
12 13 11 10 12 9 7 10 9 9 8 7 8 8 7 3 4 7 4 6 13 7 6 8 9 7 6 5 3 11 5 6 2 6 4 12 11 12 12 13 11 12 11
12 9 11 7 6 6 3 7 6 5 6 7 7 5 4 3 3 1 3 3 3 5 3 5 4 4 3 4 3 3 4 5 2 3 6 13 11 12 14 14 14 13 14
7 6 14 11 8 8 8 5 5 5 4 3 4 5 3 2 3 1 1 2 3 3 3 3 2 3 5 4 5 5 4 5 3 3 8 16 16 15 15 15 16 15 15
9 7 7 11 5 1 4 4 3 3 4 5 6 4 3 3 2 2 2 3 4 4 1 3 3 3 4 6 5 5 4 5 6 2 5 15 17 17 16 16 17 17 17
8 8 8 9 7 4 2 4 2 1 2 2 3 3 2 3 4 1 1 4 2 4 1 4 4 4 5 6 7 6 6 4 5 5 2 9 14 16 16 16 17 18 18
9 9 8 7 9 8 6 3 2 4 4 4 3 3 5 6 6 4 3 4 4 3 4 4 5 5 5 6 7 7 4 6 6 6 5 5 10 17 18 18 17 17 18
8 9 9 7 10 9 7 5 4 5 5 2 4 4 7 6 4 4 3 4 5 2 4 5 5 4 5 4 5 5 4 5 7 7 6 5 5 9 15 19 20 20 19
9 9 6 8 7 7 7 5 7 6 3 4 4 4 3 2 1 3 4 3 4 3 5 5 5 3 3 6 8 7 6 5 8 8 10 10 10 8 7 17 22 20 22
12 8 8 3 3 10 5 3 3 3 4 5 4 3 4 3 5 3 4 5 3 3 5 5 5 4 5 6 7 8 7 7 5 6 8 8 10 11 10 9 11 12 22
13 10 8 8 5 4 4 3 2 3 3 5 5 5 5 2 4 3 2 4 4 6 7 5 4 5 6 4 4 6 8 8 10 8 8 7 10 10 10 8 7 8 10
11 13 9 9 7 5 4 3 3 3 4 5 6 5 1 4 4 3 4 3 5 4 5 4 3 3 4 5 3 5 5 4 7 11 10 10 10 7 10 11 9 10 10
10 11 9 9 9 6 6 4 4 4 3 3 2 2 3 4 5 5 4 4 5 5 5 3 3 5 4 4 6 4 4 4 4 4 4 6 9 8 9 9 12 12 9
13 11 11 8 8 8 5 2 5 1 2 2 1 5 3 3 3 4 5 5 4 4 6 5 4 4 3 5 4 4 7 5 3 5 3 4 3 7 6 5 7 10 12
15 12 11 10 7 7 6 4 3 4 4 3 3 3 2 5 6 6 3 4 4 4 6 6 5 5 5 3 4 4 5 5 6 6 8 7 6 3 2 2 12 10 11
14 13 12 10 7 6 6 6 4 1 3 3 4 3 5 2 4 5 6 4 4 5 5 5 5 6 5 5 5 6 4 4 5 5 6 9 10 9 5 9 11 7 14
Wind_Direction
102 98 95 95 105 107 106 105 106 104 102 100 98 92 92 94 94 90 91 90 87 80 83 74 86 80 76 73 76 82 83 90 104 105 107 119 115 113 112 133 168 97 99
113 105 101 101 103 101 102 108 109 106 106 103 100 99 93 93 92 96 91 91 86 81 80 75 77 77 80 84 83 89 99 124 109 115 125 127 124 119 95 66 89 102 96
108 125 111 108 107 105 105 105 105 105 99 99 100 97 94 95 95 95 93 92 86 83 84 81 79 75 81 85 72 70 58 78 97 150 143 161 127 114 97 93 96 96 103
127 110 112 114 110 100 104 105 103 106 106 104 102 94 93 97 96 94 91 84 86 85 88 83 84 91 90 72 63 12 339 12 51 355 290 202 138 117 111 101 101 107 99
88 99 115 115 114 111 106 105 106 106 107 108 101 100 99 95 93 94 92 91 90 89 90 91 81 68 53 24 26 9 349 4 30 3 286 204 201 130 125 120 122 117 122
114 108 119 124 126 126 121 116 111 111 111 111 112 112 111 111 109 106 107 106 99 89 80 85 85 62 34 4 350 354 3 10 57 315 161 231 91 144 135 128 107 112 118
116 121 123 127 130 134 134 131 124 117 115 118 118 121 120 115 118 117 115 113 102 86 72 60 51 26 6 346 334 331 351 357 159 239 115 219 128 156 137 121 125 123 125
136 115 126 126 126 129 132 131 128 125 120 120 122 124 125 127 125 140 134 122 115 98 31 8 1 354 337 319 310 304 316 312 304 287 143 115 147 176 134 131 133 132 138
126 119 138 129 130 134 138 139 140 138 137 135 133 135 137 155 173 168 161 164 174 41 345 332 338 303 299 294 295 291 287 281 290 265 133 151 166 165 138 141 141 145 146
125 128 134 138 144 150 148 148 149 150 152 157 156 159 174 200 203 180 9 274 217 249 278 298 299 291 277 279 278 275 282 288 268 8 273 156 149 160 149 154 155 154 154
127 135 123 140 143 148 137 151 157 160 166 169 175 184 203 234 156 122 219 226 277 239 239 252 267 266 277 277 267 270 283 276 210 141 75 155 153 165 166 166 170 166 171
143 153 157 167 149 177 164 156 167 171 184 190 194 173 216 233 64 156 196 263 261 233 259 248 253 256 267 265 207 248 245 263 209 128 146 203 169 170 171 184 182 178 180
152 176 154 113 174 160 120 193 170 179 190 194 206 203 193 98 170 273 130 213 251 216 235 173 241 251 236 251 314 281 263 263 236 122 161 173 176 182 181 191 187 191 190
161 154 135 154 207 149 173 171 188 179 143 169 185 184 203 207 81 78 350 314 243 99 102 58 311 359 322 302 277 260 304 307 315 136 167 181 182 188 192 194 199 196 199
167 180 136 109 101 344 232 8 71 142 209 164 173 183 226 174 163 253 339 328 332 360 322 203 236 287 277 265 272 298 249 277 292 187 173 186 189 188 191 199 202 203 203
179 171 147 133 150 149 273 326 356 153 65 328 136 148 128 175 156 216 258 271 275 292 351 337 348 316 302 296 283 249 229 233 265 281 205 185 193 193 196 200 206 208 207
175 172 155 170 166 162 191 231 237 299 245 201 225 242 217 189 186 171 200 251 280 286 287 256 254 251 268 284 291 277 231 210 248 247 256 188 192 201 200 203 206 212 208
183 134 146 190 178 181 180 183 214 241 258 244 216 243 238 224 184 169 205 235 248 268 291 292 300 287 269 278 283 291 295 264 253 227 231 241 214 199 210 207 209 207 212
145 159 167 186 177 170 190 188 212 226 244 268 242 252 221 139 191 198 256 248 229 245 252 261 268 258 286 293 294 269 257 244 246 248 218 224 236 231 185 211 215 213 213
166 187 158 159 185 168 129 219 211 240 260 276 293 332 331 354 291 286 270 271 281 267 262 265 263 281 258 259 268 284 296 290 269 269 244 238 218 229 237 199 207 214 213
167 137 139 147 141 129 144 176 211 231 229 248 250 245 249 253 260 252 249 256 260 245 254 273 278 289 297 290 291 272 271 262 269 256 254 244 235 228 221 231 188 200 204
153 152 156 154 151 164 188 191 225 233 212 215 225 204 205 292 175 215 255 316 310 335 329 277 264 300 298 293 280 290 289 277 243 243 238 242 247 233 221 220 221 200 216
154 150 153 153 167 177 199 187 198 242 240 283 11 121 91 19 334 331 331 310 303 299 283 325 339 295 287 300 284 248 283 245 5 302 285 244 252 238 244 226 218 223 222
158 160 153 161 166 169 121 27 97 351 282 86 252 94 25 336 12 307 277 277 345 342 305 317 316 309 275 281 300 263 264 266 288 307 309 299 289 266 249 267 256 225 220
160 166 153 161 132 120 121 59 28 30 11 7 51 40 331 263 252 245 259 15 344 319 318 316 314 291 293 271 278 303 307 288 257 254 282 283 287 239 256 332 296 313 244
160 167 157 136 133 138 141 151 156 155 52 344 22 331 277 355 272 92 45 22 318 293 299 317 300 285 274 292 294 295 291 296 298 297 292 286 283 280 209 220 220 251 290